﻿#観測日時,平均風速,平均風向,最大風速,最大風速発生風向,最大瞬間風速,最大瞬間風速発生風向
#(年月日),(m/s)   ,(16方位),(m/s)   ,(16方位)        ,(m/s)       ,(16方位)            
2020/9/13 0:01,1.3,11,1.5,10,0.3,8
2020/9/13 0:02,1.1,11,1.3,10,0.5,8
2020/9/13 0:03,0.9,11,1.1,10,0.1,1
2020/9/13 0:04,0.7,11,0.9,10,0.3,11
2020/9/13 0:05,0.5,11,0.7,10,0.1,10
2020/9/13 0:06,0.3,11,0.4,10,0.1,10
2020/9/13 0:07,0.2,11,0.3,10,0.4,11
2020/9/13 0:08,0.2,11,0.2,10,0.3,11
2020/9/13 0:09,0.1,11,0.2,11,0.3,11
2020/9/13 0:10,0.1,11,0.1,11,0,11
2020/9/13 0:11,0.1,11,0.1,11,0.1,11
2020/9/13 0:12,0.1,11,0.1,11,0,11
2020/9/13 0:13,0.1,11,0.1,11,0,12
2020/9/13 0:14,0,11,0.1,11,0,12
2020/9/13 0:15,0,11,0,11,0,12
2020/9/13 0:16,0,11,0,11,0.1,12
2020/9/13 0:17,0,12,0,11,0,12
2020/9/13 0:18,0,12,0,11,0,12
2020/9/13 0:19,0,12,0,11,0,12
2020/9/13 0:20,0,12,0,11,0.1,14
2020/9/13 0:21,0,12,0,11,0.3,16
2020/9/13 0:22,0,13,0,11,0.3,14
2020/9/13 0:23,0,13,0,11,0.6,1
2020/9/13 0:24,0.1,14,0.1,13,0.8,1
2020/9/13 0:25,0.1,14,0.1,13,0.9,1
2020/9/13 0:26,0.2,15,0.2,14,1.3,1
2020/9/13 0:27,0.3,15,0.3,15,1.1,2
2020/9/13 0:28,0.3,16,0.3,15,0.3,16
2020/9/13 0:29,0.3,16,0.3,15,0.6,16
2020/9/13 0:30,0.4,16,0.4,16,0.6,14
2020/9/13 0:31,0.4,1,0.4,16,0.8,16
2020/9/13 0:32,0.4,1,0.4,16,0.8,16
2020/9/13 0:33,0.5,1,0.5,1,0.6,1
2020/9/13 0:34,0.4,1,0.5,1,0.5,1
2020/9/13 0:35,0.4,1,0.4,1,0.4,16
2020/9/13 0:36,0.4,1,0.4,1,0.8,15
2020/9/13 0:37,0.3,16,0.4,1,0.8,15
2020/9/13 0:38,0.3,16,0.3,1,0.8,16
2020/9/13 0:39,0.4,16,0.4,1,1.3,16
2020/9/13 0:40,0.5,16,0.5,1,1.3,16
2020/9/13 0:41,0.5,1,0.5,1,1.4,1
2020/9/13 0:42,0.5,16,0.5,1,0.8,1
2020/9/13 0:43,0.5,16,0.5,1,0.9,16
2020/9/13 0:44,0.6,16,0.6,16,0.8,16
2020/9/13 0:45,0.6,16,0.6,16,0.8,1
2020/9/13 0:46,0.6,16,0.6,16,0.9,16
2020/9/13 0:47,0.6,16,0.6,16,0.9,16
2020/9/13 0:48,0.6,16,0.6,16,0.8,16
2020/9/13 0:49,0.6,16,0.6,16,0.4,16
2020/9/13 0:50,0.5,16,0.6,16,0.1,16
2020/9/13 0:51,0.4,16,0.5,16,0.3,1
2020/9/13 0:52,0.3,16,0.4,16,0,3
2020/9/13 0:53,0.3,1,0.3,16,0.1,3
2020/9/13 0:54,0.3,1,0.3,16,0.5,16
2020/9/13 0:55,0.3,1,0.3,16,0.6,16
2020/9/13 0:56,0.3,1,0.3,16,1,16
2020/9/13 0:57,0.3,16,0.3,16,1.4,15
2020/9/13 0:58,0.3,16,0.3,16,2,16
2020/9/13 0:59,0.5,16,0.5,16,1.9,15
2020/9/13 1:00,0.6,16,0.6,16,1.9,15
2020/9/13 1:01,0.7,16,0.7,16,1.5,15
2020/9/13 1:02,0.8,16,0.8,16,1.4,16
2020/9/13 1:03,0.9,15,0.9,16,1.1,15
2020/9/13 1:04,0.9,15,0.9,16,1,15
2020/9/13 1:05,1,15,1,15,1.3,16
2020/9/13 1:06,1,15,1,15,1.3,1
2020/9/13 1:07,1,15,1,15,1,1
2020/9/13 1:08,0.9,15,1,15,1,16
2020/9/13 1:09,0.9,15,0.9,15,1,15
2020/9/13 1:10,0.8,15,0.8,15,1.1,16
2020/9/13 1:11,0.8,16,0.8,15,1,15
2020/9/13 1:12,0.7,15,0.8,15,0.8,15
2020/9/13 1:13,0.7,15,0.7,15,0.9,15
2020/9/13 1:14,0.7,15,0.7,15,0.8,15
2020/9/13 1:15,0.6,15,0.7,15,0.6,14
2020/9/13 1:16,0.6,15,0.6,15,0.5,15
2020/9/13 1:17,0.6,15,0.6,15,0.3,14
2020/9/13 1:18,0.5,14,0.5,16,0.5,11
2020/9/13 1:19,0.5,14,0.5,15,0.6,11
2020/9/13 1:20,0.4,14,0.5,15,0.6,11
2020/9/13 1:21,0.4,13,0.4,16,0.6,12
2020/9/13 1:22,0.4,13,0.4,15,0.8,13
2020/9/13 1:23,0.4,13,0.4,15,0.9,12
2020/9/13 1:24,0.4,13,0.4,15,0.9,13
2020/9/13 1:25,0.5,13,0.5,15,1,14
2020/9/13 1:26,0.5,13,0.5,15,1.3,15
2020/9/13 1:27,0.7,13,0.7,13,1.9,15
2020/9/13 1:28,0.7,13,0.7,13,1.4,15
2020/9/13 1:29,0.8,13,0.8,13,1.5,16
2020/9/13 1:30,0.8,14,0.8,13,1.1,16
2020/9/13 1:31,0.8,14,0.8,13,1.5,15
2020/9/13 1:32,0.8,14,0.8,13,1.1,1
2020/9/13 1:33,0.8,15,0.8,13,1.3,14
2020/9/13 1:34,0.8,15,0.8,13,1.3,15
2020/9/13 1:35,0.8,15,0.8,13,1.3,15
2020/9/13 1:36,0.8,15,0.8,13,1.1,16
2020/9/13 1:37,0.7,15,0.7,13,1.1,15
2020/9/13 1:38,0.7,15,0.7,13,1.6,15
2020/9/13 1:39,0.8,15,0.8,13,1.3,15
2020/9/13 1:40,0.8,15,0.8,14,1.4,15
2020/9/13 1:41,0.8,15,0.8,14,1.3,15
2020/9/13 1:42,0.8,15,0.8,14,1,14
2020/9/13 1:43,0.8,15,0.8,15,1.1,12
2020/9/13 1:44,0.8,14,0.8,15,0.8,12
2020/9/13 1:45,0.7,14,0.8,15,0.5,9
2020/9/13 1:46,0.7,14,0.7,15,0.3,1
2020/9/13 1:47,0.6,14,0.7,15,0,15
2020/9/13 1:48,0.5,14,0.6,15,0.3,15
2020/9/13 1:49,0.4,14,0.5,15,0.5,1
2020/9/13 1:50,0.3,14,0.4,15,0.1,2
2020/9/13 1:51,0.3,15,0.3,15,0.4,1
2020/9/13 1:52,0.2,15,0.2,15,0.1,1
2020/9/13 1:53,0.2,16,0.2,15,0.6,1
2020/9/13 1:54,0.1,16,0.2,14,0.6,15
2020/9/13 1:55,0.2,16,0.2,14,0.8,15
2020/9/13 1:56,0.2,16,0.2,14,0.6,16
2020/9/13 1:57,0.2,16,0.2,14,0.5,15
2020/9/13 1:58,0.2,16,0.2,14,0.1,15
2020/9/13 1:59,0.2,16,0.2,14,0.1,15
2020/9/13 2:00,0.2,16,0.2,14,0.8,5
2020/9/13 2:01,0.3,16,0.3,16,0.8,5
2020/9/13 2:02,0.3,16,0.3,16,0.5,2
2020/9/13 2:03,0.3,1,0.3,16,0.8,3
2020/9/13 2:04,0.4,1,0.4,1,1,2
2020/9/13 2:05,0.4,2,0.4,1,0.9,2
2020/9/13 2:06,0.4,2,0.4,1,1.3,1
2020/9/13 2:07,0.5,2,0.5,2,1.1,1
2020/9/13 2:08,0.5,2,0.5,2,0.8,1
2020/9/13 2:09,0.5,2,0.5,2,0.6,16
2020/9/13 2:10,0.5,2,0.5,2,0.6,15
2020/9/13 2:11,0.5,1,0.5,2,0.8,16
2020/9/13 2:12,0.6,1,0.6,1,1.1,1
2020/9/13 2:13,0.6,1,0.6,1,1.1,1
2020/9/13 2:14,0.6,1,0.6,1,1,16
2020/9/13 2:15,0.6,16,0.6,1,1,16
2020/9/13 2:16,0.6,16,0.6,1,1.3,16
2020/9/13 2:17,0.7,16,0.7,16,1.3,15
2020/9/13 2:18,0.7,16,0.7,16,1,16
2020/9/13 2:19,0.7,16,0.7,16,1,16
2020/9/13 2:20,0.8,16,0.8,16,1.1,16
2020/9/13 2:21,0.8,16,0.8,16,1.1,16
2020/9/13 2:22,0.8,16,0.8,16,1.3,16
2020/9/13 2:23,0.8,16,0.8,16,0.8,1
2020/9/13 2:24,0.8,16,0.8,16,1,16
2020/9/13 2:25,0.8,16,0.8,16,1.3,1
2020/9/13 2:26,0.8,16,0.8,16,1,15
2020/9/13 2:27,0.7,16,0.8,16,1,15
2020/9/13 2:28,0.7,16,0.7,16,0.9,15
2020/9/13 2:29,0.7,16,0.7,16,0.8,15
2020/9/13 2:30,0.7,16,0.7,16,0.6,15
2020/9/13 2:31,0.6,16,0.7,16,0.8,16
2020/9/13 2:32,0.6,16,0.6,16,0.8,16
2020/9/13 2:33,0.6,16,0.7,16,0.6,16
2020/9/13 2:34,0.6,16,0.7,16,0.8,16
2020/9/13 2:35,0.6,16,0.6,16,0.4,1
2020/9/13 2:36,0.5,16,0.6,16,0.3,1
2020/9/13 2:37,0.4,16,0.5,16,0.4,16
2020/9/13 2:38,0.4,16,0.4,16,0.8,16
2020/9/13 2:39,0.4,16,0.4,16,1,16
2020/9/13 2:40,0.5,16,0.5,16,1.1,15
2020/9/13 2:41,0.5,16,0.5,16,1.1,15
2020/9/13 2:42,0.5,16,0.5,16,0.9,15
2020/9/13 2:43,0.5,16,0.5,16,1,16
2020/9/13 2:44,0.6,16,0.6,16,1.1,15
2020/9/13 2:45,0.7,16,0.7,16,1.3,15
2020/9/13 2:46,0.7,15,0.7,16,1,15
2020/9/13 2:47,0.8,15,0.8,15,1,15
2020/9/13 2:48,0.8,15,0.8,15,0.9,16
2020/9/13 2:49,0.8,15,0.8,15,1.1,15
2020/9/13 2:50,0.8,15,0.8,15,1.1,15
2020/9/13 2:51,0.8,15,0.8,15,1.1,15
2020/9/13 2:52,0.8,15,0.8,15,1.3,16
2020/9/13 2:53,0.8,15,0.8,15,1.5,16
2020/9/13 2:54,0.8,15,0.8,15,1.3,16
2020/9/13 2:55,0.8,15,0.8,15,1,14
2020/9/13 2:56,0.8,15,0.8,15,1.1,15
2020/9/13 2:57,0.8,15,0.8,15,1.1,15
2020/9/13 2:58,0.8,15,0.8,15,1.1,16
2020/9/13 2:59,0.8,15,0.8,15,1.1,16
2020/9/13 3:00,0.8,15,0.8,15,1.8,16
2020/9/13 3:01,0.8,16,0.8,15,1.9,16
2020/9/13 3:02,0.8,16,0.8,15,1.4,16
2020/9/13 3:03,0.8,16,0.8,15,1.1,16
2020/9/13 3:04,0.8,16,0.8,15,1.4,1
2020/9/13 3:05,0.9,16,0.9,16,1.4,1
2020/9/13 3:06,0.9,16,0.9,16,1.4,1
2020/9/13 3:07,0.9,1,0.9,16,1.3,1
2020/9/13 3:08,0.9,1,0.9,16,1.6,1
2020/9/13 3:09,1,1,1,1,1.4,1
2020/9/13 3:10,0.9,1,1,1,1.3,1
2020/9/13 3:11,0.9,1,0.9,1,0.8,16
2020/9/13 3:12,0.8,1,0.9,1,0.5,16
2020/9/13 3:13,0.8,1,0.8,1,0.9,16
2020/9/13 3:14,0.8,1,0.8,1,0.6,16
2020/9/13 3:15,0.7,1,0.8,1,0.6,15
2020/9/13 3:16,0.7,16,0.7,1,0.5,14
2020/9/13 3:17,0.6,16,0.7,1,0.6,13
2020/9/13 3:18,0.6,15,0.6,1,0.8,14
2020/9/13 3:19,0.5,15,0.6,1,0.9,15
2020/9/13 3:20,0.5,15,0.5,1,0.8,14
2020/9/13 3:21,0.5,15,0.5,1,0.8,14
2020/9/13 3:22,0.5,14,0.5,1,0.8,14
2020/9/13 3:23,0.5,14,0.5,1,0.6,13
2020/9/13 3:24,0.5,14,0.5,1,0.6,13
2020/9/13 3:25,0.5,14,0.5,1,0.9,14
2020/9/13 3:26,0.6,14,0.6,16,1.3,14
2020/9/13 3:27,0.6,14,0.6,16,1,15
2020/9/13 3:28,0.6,14,0.6,15,1,16
2020/9/13 3:29,0.6,14,0.6,14,1.1,15
2020/9/13 3:30,0.7,14,0.7,14,1.3,15
2020/9/13 3:31,0.7,14,0.7,14,1,15
2020/9/13 3:32,0.7,15,0.7,14,1.1,15
2020/9/13 3:33,0.8,15,0.8,15,1,15
2020/9/13 3:34,0.8,15,0.8,15,1.6,15
2020/9/13 3:35,0.9,15,0.9,15,1.8,16
2020/9/13 3:36,0.9,15,0.9,15,1.9,16
2020/9/13 3:37,0.9,15,0.9,15,1.4,16
2020/9/13 3:38,0.9,15,0.9,15,1,15
2020/9/13 3:39,0.9,15,0.9,15,0.9,15
2020/9/13 3:40,0.9,15,0.9,15,1,14
2020/9/13 3:41,0.9,15,0.9,15,1.1,13
2020/9/13 3:42,0.9,14,0.9,15,0.9,13
2020/9/13 3:43,0.8,14,0.9,15,0.6,13
2020/9/13 3:44,0.7,14,0.8,15,0.3,12
2020/9/13 3:45,0.6,13,0.7,15,0.5,11
2020/9/13 3:46,0.6,13,0.6,15,0.4,10
2020/9/13 3:47,0.5,13,0.6,15,0.3,8
2020/9/13 3:48,0.4,12,0.5,15,0.4,6
2020/9/13 3:49,0.4,12,0.4,15,0.8,5
2020/9/13 3:50,0.4,11,0.4,15,0.9,4
2020/9/13 3:51,0.4,9,0.4,15,0.9,4
2020/9/13 3:52,0.4,7,0.4,14,0.9,4
2020/9/13 3:53,0.4,5,0.4,14,0.8,3
2020/9/13 3:54,0.4,5,0.4,14,0.6,3
2020/9/13 3:55,0.4,4,0.4,13,0.1,3
2020/9/13 3:56,0.4,4,0.4,13,0.1,14
2020/9/13 3:57,0.4,4,0.4,13,0.1,11
2020/9/13 3:58,0.4,3,0.4,12,0.1,16
2020/9/13 3:59,0.3,2,0.4,11,0.1,16
2020/9/13 4:00,0.3,1,0.3,11,0.3,14
2020/9/13 4:01,0.2,1,0.3,9,0.4,9
2020/9/13 4:02,0.2,15,0.2,7,0.5,8
2020/9/13 4:03,0.1,13,0.2,5,0.6,8
2020/9/13 4:04,0.1,11,0.1,5,0.4,8
2020/9/13 4:05,0.1,10,0.1,4,0.1,8
2020/9/13 4:06,0.1,9,0.1,4,0.1,8
2020/9/13 4:07,0.1,9,0.1,4,0,8
2020/9/13 4:08,0.1,9,0.1,3,0.3,8
2020/9/13 4:09,0.1,9,0.1,2,0.9,16
2020/9/13 4:10,0.2,8,0.2,1,1.1,1
2020/9/13 4:11,0.2,8,0.2,16,1,1
2020/9/13 4:12,0.3,8,0.3,8,1,1
2020/9/13 4:13,0.3,7,0.3,8,0.4,5
2020/9/13 4:14,0.3,5,0.3,8,0.5,2
2020/9/13 4:15,0.3,3,0.3,8,1,16
2020/9/13 4:16,0.4,2,0.4,3,1,16
2020/9/13 4:17,0.5,1,0.5,1,1.3,16
2020/9/13 4:18,0.6,1,0.6,1,1.3,1
2020/9/13 4:19,0.6,1,0.7,1,1.1,1
2020/9/13 4:20,0.6,1,0.6,1,1.1,1
2020/9/13 4:21,0.6,1,0.6,1,1.1,2
2020/9/13 4:22,0.6,1,0.6,1,0.8,16
2020/9/13 4:23,0.6,1,0.6,1,0.8,2
2020/9/13 4:24,0.7,1,0.7,1,0.9,1
2020/9/13 4:25,0.6,1,0.7,1,0.8,1
2020/9/13 4:26,0.6,1,0.6,1,0.6,1
2020/9/13 4:27,0.6,1,0.6,1,0.8,1
2020/9/13 4:28,0.5,1,0.6,1,0.9,1
2020/9/13 4:29,0.5,1,0.5,1,0.6,2
2020/9/13 4:30,0.5,1,0.5,1,0.5,2
2020/9/13 4:31,0.4,2,0.5,1,0.5,3
2020/9/13 4:32,0.4,2,0.4,1,0.5,2
2020/9/13 4:33,0.4,2,0.4,1,0.5,3
2020/9/13 4:34,0.4,2,0.4,1,0.5,2
2020/9/13 4:35,0.3,2,0.4,1,0.5,3
2020/9/13 4:36,0.3,2,0.3,1,0.4,2
2020/9/13 4:37,0.3,2,0.3,1,0.1,15
2020/9/13 4:38,0.2,2,0.3,1,0.1,16
2020/9/13 4:39,0.2,2,0.2,1,0.3,1
2020/9/13 4:40,0.2,2,0.2,1,0.3,1
2020/9/13 4:41,0.1,2,0.2,2,0.1,3
2020/9/13 4:42,0.1,2,0.1,2,0.1,2
2020/9/13 4:43,0.1,1,0.1,2,0.3,16
2020/9/13 4:44,0.1,1,0.1,2,0.3,1
2020/9/13 4:45,0,2,0,2,0,4
2020/9/13 4:46,0,1,0,2,0,1
2020/9/13 4:47,0,1,0,2,0,16
2020/9/13 4:48,0,1,0,2,0.1,15
2020/9/13 4:49,0.1,1,0.1,2,0.6,12
2020/9/13 4:50,0.1,16,0.1,2,0.6,12
2020/9/13 4:51,0.1,16,0.1,2,0.6,13
2020/9/13 4:52,0.2,15,0.2,16,0.6,12
2020/9/13 4:53,0.2,14,0.2,16,0.8,12
2020/9/13 4:54,0.2,14,0.2,16,0.3,13
2020/9/13 4:55,0.3,14,0.3,14,0.8,13
2020/9/13 4:56,0.3,13,0.3,14,0.8,13
2020/9/13 4:57,0.4,13,0.4,13,0.8,13
2020/9/13 4:58,0.5,13,0.5,13,0.8,12
2020/9/13 4:59,0.5,13,0.5,13,1,12
2020/9/13 5:00,0.5,13,0.5,13,1,12
2020/9/13 5:01,0.6,12,0.6,13,1.1,11
2020/9/13 5:02,0.6,12,0.6,13,1.1,11
2020/9/13 5:03,0.6,12,0.6,13,1.1,10
2020/9/13 5:04,0.7,12,0.7,12,1.1,11
2020/9/13 5:05,0.7,12,0.7,12,0.9,12
2020/9/13 5:06,0.8,11,0.8,11,1,10
2020/9/13 5:07,0.8,11,0.8,11,1,11
2020/9/13 5:08,0.8,11,0.8,11,1,12
2020/9/13 5:09,0.7,11,0.8,11,0.8,14
2020/9/13 5:10,0.7,11,0.7,11,0.4,12
2020/9/13 5:11,0.6,11,0.7,11,0.6,10
2020/9/13 5:12,0.5,11,0.6,11,0.3,10
2020/9/13 5:13,0.5,12,0.5,11,0.5,12
2020/9/13 5:14,0.5,12,0.5,11,0.5,12
2020/9/13 5:15,0.4,12,0.5,11,0.9,14
2020/9/13 5:16,0.4,12,0.4,11,0.9,14
2020/9/13 5:17,0.4,13,0.4,11,0.8,16
2020/9/13 5:18,0.3,13,0.4,11,0.4,16
2020/9/13 5:19,0.3,13,0.3,11,0.4,15
2020/9/13 5:20,0.3,14,0.3,11,0.9,15
2020/9/13 5:21,0.3,14,0.3,11,0.4,16
2020/9/13 5:22,0.3,15,0.3,11,0.4,1
2020/9/13 5:23,0.3,15,0.3,12,0.9,16
2020/9/13 5:24,0.3,16,0.3,12,1,16
2020/9/13 5:25,0.3,16,0.4,12,0.8,16
2020/9/13 5:26,0.3,16,0.3,12,0.5,4
2020/9/13 5:27,0.3,16,0.3,13,0.1,15
2020/9/13 5:28,0.2,16,0.3,16,0.1,15
2020/9/13 5:29,0.2,1,0.2,16,0.1,4
2020/9/13 5:30,0.2,1,0.2,16,0,4
2020/9/13 5:31,0.2,1,0.2,16,0.5,3
2020/9/13 5:32,0.2,2,0.2,16,0.8,3
2020/9/13 5:33,0.2,2,0.2,16,0.5,3
2020/9/13 5:34,0.2,2,0.2,16,0.8,2
2020/9/13 5:35,0.2,2,0.2,16,0.9,2
2020/9/13 5:36,0.3,2,0.3,16,1.3,16
2020/9/13 5:37,0.3,2,0.3,16,1.1,16
2020/9/13 5:38,0.4,2,0.4,2,0.8,1
2020/9/13 5:39,0.4,1,0.4,2,0.9,15
2020/9/13 5:40,0.5,1,0.5,1,1,15
2020/9/13 5:41,0.5,16,0.5,1,0.4,14
2020/9/13 5:42,0.4,16,0.5,1,0.1,13
2020/9/13 5:43,0.4,15,0.4,1,0.4,15
2020/9/13 5:44,0.4,15,0.4,1,0.6,15
2020/9/13 5:45,0.4,15,0.4,1,0.8,16
2020/9/13 5:46,0.3,15,0.4,1,0.5,1
2020/9/13 5:47,0.3,15,0.3,1,0.4,3
2020/9/13 5:48,0.2,16,0.3,1,0.1,3
2020/9/13 5:49,0.2,16,0.2,1,0.1,3
2020/9/13 5:50,0.1,1,0.2,1,0.4,3
2020/9/13 5:51,0.2,1,0.2,16,0.5,2
2020/9/13 5:52,0.2,1,0.2,16,0.4,15
2020/9/13 5:53,0.2,1,0.2,15,0.4,2
2020/9/13 5:54,0.2,2,0.2,15,0.5,1
2020/9/13 5:55,0.2,2,0.2,15,0.8,1
2020/9/13 5:56,0.2,2,0.2,15,0.6,16
2020/9/13 5:57,0.2,1,0.2,15,0.6,1
2020/9/13 5:58,0.2,1,0.2,16,0.8,1
2020/9/13 5:59,0.3,1,0.3,1,0.6,1
2020/9/13 6:00,0.3,1,0.3,1,0.8,16
2020/9/13 6:01,0.3,1,0.3,1,0.8,16
2020/9/13 6:02,0.4,1,0.4,1,0.6,2
2020/9/13 6:03,0.4,1,0.4,1,0.9,2
2020/9/13 6:04,0.5,1,0.5,1,0.9,3
2020/9/13 6:05,0.5,2,0.5,1,1.1,4
2020/9/13 6:06,0.6,2,0.6,2,1.1,3
2020/9/13 6:07,0.6,2,0.6,2,1.1,3
2020/9/13 6:08,0.7,2,0.7,2,1,3
2020/9/13 6:09,0.6,2,0.7,2,0.5,4
2020/9/13 6:10,0.6,3,0.6,2,0.8,10
2020/9/13 6:11,0.6,3,0.6,2,1.4,10
2020/9/13 6:12,0.7,4,0.7,2,1.6,7
2020/9/13 6:13,0.8,5,0.8,5,1.8,9
2020/9/13 6:14,0.8,6,0.8,5,1.8,9
2020/9/13 6:15,0.8,7,0.8,5,2,9
2020/9/13 6:16,0.9,8,0.9,8,1.8,8
2020/9/13 6:17,0.8,8,0.8,8,0.6,8
2020/9/13 6:18,0.8,9,0.8,8,1.3,10
2020/9/13 6:19,0.9,9,0.9,8,1.6,9
2020/9/13 6:20,0.9,9,0.9,8,1.4,9
2020/9/13 6:21,0.9,9,0.9,8,1.3,9
2020/9/13 6:22,0.8,9,0.9,8,0.8,10
2020/9/13 6:23,0.8,9,0.8,8,1.8,9
2020/9/13 6:24,0.8,9,0.8,8,1.6,10
2020/9/13 6:25,0.8,10,0.8,8,2.5,9
2020/9/13 6:26,0.7,10,0.8,9,2,10
2020/9/13 6:27,0.8,9,0.8,9,1.9,10
2020/9/13 6:28,0.8,10,0.8,9,2.2,10
2020/9/13 6:29,0.9,10,0.9,9,2.5,10
2020/9/13 6:30,1,10,1,10,2.4,9
2020/9/13 6:31,1.1,10,1.1,10,2.5,11
2020/9/13 6:32,1.2,10,1.2,10,2.7,10
2020/9/13 6:33,1.2,10,1.2,10,2.1,9
2020/9/13 6:34,1.2,10,1.2,10,2.4,11
2020/9/13 6:35,1.2,10,1.3,10,2.2,10
2020/9/13 6:36,1.3,10,1.3,10,1.9,12
2020/9/13 6:37,1.3,10,1.3,10,1.3,11
2020/9/13 6:38,1.3,11,1.4,11,1.3,12
2020/9/13 6:39,1.3,11,1.3,11,1.4,12
2020/9/13 6:40,1.2,11,1.3,11,0.9,13
2020/9/13 6:41,1.1,12,1.2,11,1.3,13
2020/9/13 6:42,1.1,12,1.1,11,1.4,13
2020/9/13 6:43,1.1,12,1.1,11,1.1,13
2020/9/13 6:44,1,13,1.1,11,1.3,15
2020/9/13 6:45,1,13,1,11,1.1,15
2020/9/13 6:46,0.9,13,1,11,1.3,16
2020/9/13 6:47,0.9,14,0.9,11,0.8,15
2020/9/13 6:48,0.9,14,0.9,11,1.6,16
2020/9/13 6:49,0.8,14,0.9,11,1,1
2020/9/13 6:50,0.9,15,0.9,12,1.8,1
2020/9/13 6:51,0.9,15,0.9,12,1.8,1
2020/9/13 6:52,0.8,16,0.9,12,1.3,1
2020/9/13 6:53,0.8,16,0.8,12,0.5,2
2020/9/13 6:54,0.7,16,0.8,13,0.8,4
2020/9/13 6:55,0.8,1,0.8,13,1.8,7
2020/9/13 6:56,0.8,1,0.8,13,1.6,7
2020/9/13 6:57,0.8,2,0.8,14,0.8,5
2020/9/13 6:58,0.8,3,0.8,14,1.9,9
2020/9/13 6:59,0.8,4,0.8,15,1.3,10
2020/9/13 7:00,0.8,6,0.8,15,1.6,7
2020/9/13 7:01,0.7,7,0.8,15,1.6,10
2020/9/13 7:02,0.8,8,0.8,16,1.6,9
2020/9/13 7:03,0.9,8,0.9,8,2.5,8
2020/9/13 7:04,1.1,8,1.1,8,2.1,8
2020/9/13 7:05,1,8,1.1,8,1.9,9
2020/9/13 7:06,1,8,1,8,1.6,8
2020/9/13 7:07,1,8,1,8,0.3,5
2020/9/13 7:08,0.9,8,1,8,0.1,8
2020/9/13 7:09,0.8,8,0.9,8,0.5,9
2020/9/13 7:10,0.7,8,0.8,8,0.3,9
2020/9/13 7:11,0.7,8,0.7,8,0.8,6
2020/9/13 7:12,0.6,8,0.7,8,0.5,6
2020/9/13 7:13,0.5,8,0.6,8,0.5,7
2020/9/13 7:14,0.3,8,0.5,8,0.3,7
2020/9/13 7:15,0.2,7,0.3,8,0.1,6
2020/9/13 7:16,0.1,7,0.2,8,0.5,16
2020/9/13 7:17,0.2,7,0.2,8,0.6,4
2020/9/13 7:18,0.2,6,0.2,8,0.8,4
2020/9/13 7:19,0.3,6,0.3,8,0.5,5
2020/9/13 7:20,0.3,5,0.3,8,0.8,3
2020/9/13 7:21,0.3,5,0.3,8,1.4,5
2020/9/13 7:22,0.4,5,0.4,8,1.8,5
2020/9/13 7:23,0.4,5,0.4,8,1,4
2020/9/13 7:24,0.5,5,0.5,5,1.5,6
2020/9/13 7:25,0.7,5,0.7,5,2,6
2020/9/13 7:26,0.9,5,0.9,5,2,6
2020/9/13 7:27,0.9,5,0.9,5,1.6,5
2020/9/13 7:28,1,5,1,5,1.3,6
2020/9/13 7:29,1,6,1,5,1.1,5
2020/9/13 7:30,1,6,1,5,1,5
2020/9/13 7:31,0.9,6,1,5,0.1,8
2020/9/13 7:32,0.8,6,0.9,5,0.1,8
2020/9/13 7:33,0.8,7,0.8,5,0.4,9
2020/9/13 7:34,0.7,7,0.8,5,1,10
2020/9/13 7:35,0.6,7,0.7,5,1.4,10
2020/9/13 7:36,0.5,8,0.6,5,1.4,10
2020/9/13 7:37,0.5,8,0.5,5,0.9,10
2020/9/13 7:38,0.4,9,0.5,5,1.3,10
2020/9/13 7:39,0.4,9,0.4,6,1.4,9
2020/9/13 7:40,0.5,10,0.5,6,1.6,9
2020/9/13 7:41,0.5,10,0.5,6,1.3,8
2020/9/13 7:42,0.6,10,0.6,6,0.8,10
2020/9/13 7:43,0.6,10,0.6,7,0.8,11
2020/9/13 7:44,0.6,10,0.6,7,0.9,10
2020/9/13 7:45,0.6,10,0.6,8,0.5,9
2020/9/13 7:46,0.5,10,0.6,10,1,11
2020/9/13 7:47,0.6,10,0.6,10,1,9
2020/9/13 7:48,0.5,10,0.6,10,1.1,9
2020/9/13 7:49,0.5,10,0.6,10,1.3,8
2020/9/13 7:50,0.5,10,0.5,10,1.9,8
2020/9/13 7:51,0.6,10,0.6,10,1.8,10
2020/9/13 7:52,0.7,10,0.7,10,2.5,8
2020/9/13 7:53,0.8,10,0.8,10,2,10
2020/9/13 7:54,0.9,9,0.9,9,2,8
2020/9/13 7:55,1,9,1,9,2.2,8
2020/9/13 7:56,1,9,1,9,2,8
2020/9/13 7:57,1.1,9,1.1,9,1.6,8
2020/9/13 7:58,1.1,8,1.2,9,1.8,8
2020/9/13 7:59,1.2,8,1.2,9,2.2,9
2020/9/13 8:00,1.3,8,1.3,9,2.2,8
2020/9/13 8:01,1.3,9,1.3,9,2.5,9
2020/9/13 8:02,1.3,8,1.3,9,3.1,8
2020/9/13 8:03,1.3,8,1.3,9,2.1,8
2020/9/13 8:04,1.3,8,1.3,9,3.1,8
2020/9/13 8:05,1.4,8,1.4,8,3.5,8
2020/9/13 8:06,1.5,8,1.5,8,3.5,8
2020/9/13 8:07,1.6,8,1.6,8,3.1,8
2020/9/13 8:08,1.7,8,1.7,8,2.7,8
2020/9/13 8:09,1.8,8,1.8,8,2.7,8
2020/9/13 8:10,1.9,8,1.9,8,4.1,8
2020/9/13 8:11,2,8,2,8,2.9,7
2020/9/13 8:12,2,8,2,8,3,7
2020/9/13 8:13,2.1,8,2.1,8,3.2,8
2020/9/13 8:14,2.1,8,2.1,8,2.7,8
2020/9/13 8:15,2,8,2.1,8,2.9,8
2020/9/13 8:16,2.1,8,2.1,8,3.3,8
2020/9/13 8:17,2.1,8,2.1,8,3.2,8
2020/9/13 8:18,2.1,8,2.1,8,3.1,7
2020/9/13 8:19,2.2,8,2.2,8,3.5,7
2020/9/13 8:20,2.1,8,2.2,8,3,7
2020/9/13 8:21,2.1,8,2.1,8,2.9,7
2020/9/13 8:22,2.1,8,2.1,8,2.4,9
2020/9/13 8:23,2,8,2.1,8,3,8
2020/9/13 8:24,2,7,2,8,2.9,7
2020/9/13 8:25,2,7,2,8,2.9,6
2020/9/13 8:26,1.8,7,2,8,1.5,8
2020/9/13 8:27,1.7,7,1.8,8,2.4,8
2020/9/13 8:28,1.7,7,1.7,8,2.9,8
2020/9/13 8:29,1.6,7,1.7,8,2.7,8
2020/9/13 8:30,1.6,7,1.6,8,2.4,7
2020/9/13 8:31,1.5,7,1.6,8,2.1,6
2020/9/13 8:32,1.5,7,1.5,8,1.9,7
2020/9/13 8:33,1.5,7,1.5,8,1.5,9
2020/9/13 8:34,1.4,7,1.4,7,1.9,7
2020/9/13 8:35,1.3,8,1.4,7,1.8,7
2020/9/13 8:36,1.2,8,1.3,7,0.9,8
2020/9/13 8:37,1.1,8,1.2,7,0.9,6
2020/9/13 8:38,1.1,8,1.1,7,1.9,10
2020/9/13 8:39,1,7,1.1,7,2.2,8
2020/9/13 8:40,1,7,1,7,3.3,8
2020/9/13 8:41,0.9,8,1,7,1.8,8
2020/9/13 8:42,0.9,8,0.9,7,1.8,9
2020/9/13 8:43,1.1,7,1.1,7,3.5,7
2020/9/13 8:44,1.2,7,1.2,7,3.5,5
2020/9/13 8:45,1.3,7,1.3,8,2.9,6
2020/9/13 8:46,1.6,6,1.6,6,3.6,6
2020/9/13 8:47,1.7,7,1.7,7,2.7,6
2020/9/13 8:48,1.8,6,1.8,6,3.7,5
2020/9/13 8:49,1.8,6,1.8,6,2.2,5
2020/9/13 8:50,1.7,6,1.8,6,2.7,7
2020/9/13 8:51,1.8,6,1.8,6,3.3,9
2020/9/13 8:52,2,6,2,6,4.5,8
2020/9/13 8:53,1.9,6,2,6,3,8
2020/9/13 8:54,1.8,7,1.9,6,3.6,8
2020/9/13 8:55,1.7,7,1.8,6,2.4,6
2020/9/13 8:56,1.4,7,1.6,6,0.9,6
2020/9/13 8:57,1.4,7,1.4,6,2.2,5
2020/9/13 8:58,1.3,7,1.4,6,1.6,6
2020/9/13 8:59,1.4,7,1.4,6,3,10
2020/9/13 9:00,1.5,7,1.5,6,3.3,8
2020/9/13 9:01,1.4,7,1.5,6,2.2,8
2020/9/13 9:02,1.4,8,1.4,6,3.2,10
2020/9/13 9:03,1.4,8,1.4,6,3.8,11
2020/9/13 9:04,1.6,9,1.6,7,4.5,11
2020/9/13 9:05,1.8,9,1.8,9,5.8,10
2020/9/13 9:06,2.1,9,2.1,9,6,10
2020/9/13 9:07,2.2,10,2.2,10,4.7,9
2020/9/13 9:08,2.3,10,2.3,10,3.3,11
2020/9/13 9:09,2.3,10,2.3,10,4.5,9
2020/9/13 9:10,2.2,10,2.3,10,3.1,9
2020/9/13 9:11,2.5,10,2.5,10,6.8,9
2020/9/13 9:12,2.6,10,2.6,10,5.5,9
2020/9/13 9:13,2.9,10,2.9,10,7.8,9
2020/9/13 9:14,2.9,10,2.9,10,5.4,10
2020/9/13 9:15,2.9,10,3,10,3.7,11
2020/9/13 9:16,2.8,10,2.9,10,3.7,10
2020/9/13 9:17,2.8,10,2.8,10,3.7,10
2020/9/13 9:18,2.9,10,2.9,10,3.8,11
2020/9/13 9:19,2.9,10,3,10,3.3,10
2020/9/13 9:20,3.2,10,3.2,10,6.8,9
2020/9/13 9:21,3.1,10,3.2,10,5.2,9
2020/9/13 9:22,2.9,10,3,10,3.7,9
2020/9/13 9:23,2.7,10,2.9,10,4.5,10
2020/9/13 9:24,2.7,10,2.7,10,5.6,10
2020/9/13 9:25,2.7,10,2.8,10,3.9,10
2020/9/13 9:26,2.6,10,2.7,10,3.1,9
2020/9/13 9:27,2.5,10,2.6,10,3,9
2020/9/13 9:28,2.3,10,2.5,10,1.6,10
2020/9/13 9:29,2.3,10,2.3,10,3.2,9
2020/9/13 9:30,2.1,10,2.3,10,2.9,8
2020/9/13 9:31,1.9,10,2,10,3.8,9
2020/9/13 9:32,2,10,2,10,3.9,10
2020/9/13 9:33,2.1,10,2.1,10,5.5,9
2020/9/13 9:34,1.8,9,2.1,10,2.6,8
2020/9/13 9:35,1.7,9,1.8,10,1.5,1
2020/9/13 9:36,1.7,9,1.7,10,3.2,11
2020/9/13 9:37,1.8,9,1.8,10,4.5,11
2020/9/13 9:38,1.9,9,1.9,10,4.1,10
2020/9/13 9:39,1.9,9,1.9,10,3.7,10
2020/9/13 9:40,1.9,9,1.9,10,2.9,10
2020/9/13 9:41,1.7,9,1.8,10,1.8,7
2020/9/13 9:42,1.7,9,1.7,10,3.3,8
2020/9/13 9:43,1.4,9,1.7,10,1.4,8
2020/9/13 9:44,1.4,9,1.4,9,2,7
2020/9/13 9:45,1.5,9,1.5,9,3,9
2020/9/13 9:46,1.5,10,1.6,9,3.8,9
2020/9/13 9:47,1.4,10,1.5,9,2.1,10
2020/9/13 9:48,1.3,9,1.4,9,2.4,8
2020/9/13 9:49,1.2,10,1.3,9,2.1,11
2020/9/13 9:50,1.4,9,1.4,9,5,9
2020/9/13 9:51,1.6,10,1.6,9,5.6,9
2020/9/13 9:52,1.5,10,1.6,9,3.6,9
2020/9/13 9:53,1.9,10,1.9,10,5.4,9
2020/9/13 9:54,2.2,10,2.2,10,6.1,10
2020/9/13 9:55,2.4,10,2.4,10,6.2,10
2020/9/13 9:56,2.4,10,2.5,10,4.2,11
2020/9/13 9:57,2.5,10,2.5,10,3.9,9
2020/9/13 9:58,2.7,10,2.7,10,4.9,10
2020/9/13 9:59,2.8,10,2.8,10,4.2,11
2020/9/13 10:00,2.8,10,2.8,10,3.7,9
2020/9/13 10:01,2.8,10,2.8,10,5.4,10
2020/9/13 10:02,2.9,10,2.9,10,5.7,10
2020/9/13 10:03,2.8,10,2.9,10,5,9
2020/9/13 10:04,2.7,10,2.8,10,4.7,11
2020/9/13 10:05,2.6,10,2.7,10,4.8,11
2020/9/13 10:06,2.6,10,2.6,10,3.9,10
2020/9/13 10:07,2.7,10,2.7,10,3.8,10
2020/9/13 10:08,2.6,10,2.7,10,4.2,7
2020/9/13 10:09,2.6,10,2.6,10,6,9
2020/9/13 10:10,2.6,10,2.6,10,5.6,8
2020/9/13 10:11,2.6,10,2.7,10,6.2,9
2020/9/13 10:12,2.7,10,2.7,10,5.5,9
2020/9/13 10:13,2.6,10,2.7,10,3.9,8
2020/9/13 10:14,2.6,10,2.6,10,4.7,10
2020/9/13 10:15,2.6,10,2.6,10,3.8,8
2020/9/13 10:16,2.6,10,2.6,10,5.6,9
2020/9/13 10:17,2.7,10,2.7,10,6.8,9
2020/9/13 10:18,2.8,10,2.8,10,5.8,9
2020/9/13 10:19,2.8,10,2.8,10,4.7,9
2020/9/13 10:20,2.9,10,2.9,10,6.3,10
2020/9/13 10:21,2.9,10,2.9,10,4.9,8
2020/9/13 10:22,3,10,3,10,6.7,10
2020/9/13 10:23,2.9,10,3,10,3.9,9
2020/9/13 10:24,2.8,10,2.9,10,3.3,10
2020/9/13 10:25,2.7,10,2.8,10,3,9
2020/9/13 10:26,2.6,10,2.7,10,4.8,9
2020/9/13 10:27,2.4,10,2.6,10,3.7,9
2020/9/13 10:28,2.2,10,2.3,10,2.4,10
2020/9/13 10:29,2.2,10,2.2,10,4.9,10
2020/9/13 10:30,2.1,10,2.3,10,6.3,9
2020/9/13 10:31,1.9,10,2.1,10,5.5,9
2020/9/13 10:32,1.9,10,1.9,10,5.7,10
2020/9/13 10:33,2.2,10,2.2,10,6.1,10
2020/9/13 10:34,2.4,10,2.4,10,5.8,11
2020/9/13 10:35,2.5,10,2.5,10,5.7,10
2020/9/13 10:36,2.7,10,2.7,10,6.9,9
2020/9/13 10:37,2.8,11,2.8,10,3.7,11
2020/9/13 10:38,2.9,10,2.9,10,4.7,8
2020/9/13 10:39,3,10,3,10,6.4,9
2020/9/13 10:40,3.1,10,3.1,10,6.7,10
2020/9/13 10:41,3.2,10,3.2,10,4.8,9
2020/9/13 10:42,3.1,10,3.2,10,4.1,11
2020/9/13 10:43,2.8,10,3.1,10,4.9,11
2020/9/13 10:44,2.9,10,2.9,10,7.4,9
2020/9/13 10:45,3,10,3.1,10,7.2,9
2020/9/13 10:46,2.7,10,2.9,10,3.3,8
2020/9/13 10:47,2.7,10,2.7,10,4.3,9
2020/9/13 10:48,2.7,10,2.7,10,5,9
2020/9/13 10:49,2.7,10,2.7,10,5.8,10
2020/9/13 10:50,2.6,10,2.7,10,6.2,10
2020/9/13 10:51,2.8,10,2.8,10,6.1,10
2020/9/13 10:52,3,10,3,10,6.7,9
2020/9/13 10:53,3.2,9,3.2,9,6.8,10
2020/9/13 10:54,3.1,9,3.2,9,6,9
2020/9/13 10:55,3.1,9,3.1,9,4.8,9
2020/9/13 10:56,3.2,9,3.2,9,4.8,9
2020/9/13 10:57,3.3,10,3.3,9,4.7,10
2020/9/13 10:58,3.3,10,3.3,9,5.1,11
2020/9/13 10:59,3.5,10,3.5,10,5.6,11
2020/9/13 11:00,3.4,10,3.5,10,6.1,10
2020/9/13 11:01,3.3,10,3.4,10,5.5,10
2020/9/13 11:02,3.2,10,3.3,10,6.3,11
2020/9/13 11:03,3.2,10,3.3,10,6.8,9
2020/9/13 11:04,3.2,10,3.3,10,6.4,10
2020/9/13 11:05,3.2,10,3.3,10,6,10
2020/9/13 11:06,3.2,10,3.3,10,5.4,9
2020/9/13 11:07,3.2,10,3.2,10,4.9,10
2020/9/13 11:08,3.3,10,3.3,10,5.7,10
2020/9/13 11:09,3.1,10,3.3,10,4.9,10
2020/9/13 11:10,3.2,10,3.2,10,5,10
2020/9/13 11:11,3.2,10,3.2,10,4.8,9
2020/9/13 11:12,3.2,10,3.3,10,4.5,10
2020/9/13 11:13,3.1,10,3.2,10,5.4,11
2020/9/13 11:14,3.2,10,3.2,10,5.8,10
2020/9/13 11:15,3.1,10,3.2,10,5,8